Temperature
20 18 18 18 19 20 20 20 20 20 20 20 19 19 19 18 18 18 18 18 18 18 18 18 18 18 17 17 17 17 16 16 16 16 15 15 15 15 15 15 15 15 14 14
18 19 20 20 20 20 20 20 20 20 20 20 19 19 18 18 18 18 18 18 18 18 18 18 18 17 17 17 17 16 16 16 15 15 15 15 15 15 15 15 15 14 14 14
19 20 21 21 20 20 20 20 20 20 20 19 19 19 18 18 18 18 18 18 18 18 18 18 18 17 17 17 17 16 16 16 15 15 15 15 15 15 15 14 14 14 14 14
19 20 21 21 21 20 20 20 20 20 19 18 19 18 18 17 17 17 17 17 17 17 18 18 17 17 17 16 16 16 16 15 15 15 15 15 14 14 15 14 14 14 14 14
20 21 21 21 21 21 21 21 20 19 18 17 18 17 17 17 17 16 16 17 17 17 17 17 17 17 17 16 16 16 15 15 15 15 15 14 14 14 14 14 14 14 14 13
21 21 21 22 22 21 21 19 18 16 16 17 18 17 17 16 17 17 16 17 17 17 17 17 17 17 16 16 16 15 15 15 15 14 14 14 14 14 14 14 14 14 13 13
21 21 22 22 22 21 20 18 18 18 17 17 17 17 17 17 17 17 16 17 17 17 17 17 17 16 16 16 16 15 15 15 14 14 14 14 14 14 14 14 14 13 13 13
20 20 21 21 21 20 19 19 18 18 17 17 17 17 17 17 17 17 17 17 17 17 17 17 17 16 16 16 16 15 15 15 14 14 14 14 14 14 14 13 13 13 13 13
19 20 21 22 22 21 19 18 18 16 17 17 16 17 17 17 17 16 16 16 16 17 17 17 17 16 16 16 16 15 15 15 14 14 14 14 14 14 13 13 13 13 13 13
20 20 21 21 21 20 19 17 15 16 17 17 18 17 17 17 17 16 15 15 16 17 17 17 17 16 16 16 16 15 15 15 14 14 14 14 14 14 13 13 13 13 13 13
20 19 20 20 20 20 19 18 16 15 16 16 17 17 17 17 16 15 15 16 16 17 17 17 17 16 16 16 16 15 15 14 14 14 14 14 14 13 13 13 13 13 13 13
18 17 18 19 20 20 19 18 16 17 16 15 16 16 17 16 16 16 16 16 17 17 17 17 17 16 16 16 16 15 15 14 14 14 14 14 14 13 13 13 13 13 13 13
18 17 18 19 19 19 19 18 16 15 14 14 15 17 17 16 16 16 16 16 17 17 17 17 17 16 16 16 16 15 15 15 14 14 14 14 13 13 13 13 13 13 13 13
18 16 17 19 18 19 19 18 17 16 15 15 16 17 16 16 15 15 16 16 16 17 17 17 17 16 16 16 16 15 15 15 14 14 14 14 13 13 13 13 13 13 13 13
17 17 18 18 19 19 19 18 17 17 16 16 17 16 16 15 15 15 16 16 16 16 16 16 16 16 16 16 16 15 15 15 14 14 14 14 13 13 13 13 13 13 12 12
15 17 18 18 19 18 18 18 18 17 17 16 16 16 16 15 16 15 16 16 16 16 16 16 16 16 16 16 15 15 15 15 14 14 14 14 13 13 13 13 13 13 12 12
14 16 16 17 18 18 18 18 17 17 17 16 16 16 15 15 15 15 15 16 16 16 16 16 16 16 16 16 15 15 15 15 14 14 14 14 13 13 13 13 13 13 12 12
14 14 14 15 17 18 17 18 18 17 16 16 16 15 15 15 15 16 16 16 16 16 16 16 16 16 16 16 15 15 15 15 14 14 14 14 13 13 13 13 13 13 13 12
14 14 14 14 16 17 17 17 17 17 16 15 15 15 15 15 15 15 16 16 16 16 16 16 16 16 16 15 15 15 15 14 14 14 14 14 14 13 13 13 13 13 13 13
13 13 14 14 16 16 17 17 17 16 16 15 14 14 14 14 14 14 16 16 17 17 16 16 16 16 16 15 15 15 15 14 14 14 14 14 14 13 13 13 13 13 13 13
14 14 14 14 15 16 16 16 17 17 16 15 15 15 15 14 15 16 16 16 16 16 16 16 16 16 15 15 15 15 14 14 14 14 14 14 13 13 13 13 13 13 13 13
14 13 14 13 15 15 15 15 15 15 15 15 15 15 15 15 16 16 16 16 16 16 16 16 15 15 15 15 14 14 14 14 14 14 14 13 13 13 13 13 13 13 13 12
13 13 12 13 14 14 14 15 16 16 15 15 15 15 16 15 15 16 16 16 16 16 15 15 15 15 15 14 14 14 14 14 14 14 13 13 13 13 13 13 13 13 12 12
12 12 11 12 12 13 14 15 15 16 16 16 16 16 16 15 15 15 15 15 15 15 15 15 15 15 14 14 14 14 14 14 14 13 13 13 13 13 13 12 12 12 12 12
12 11 11 11 12 13 13 14 14 15 15 15 15 16 15 15 15 15 15 15 15 15 15 14 14 14 14 14 14 14 13 13 13 13 13 13 13 13 12 12 12 12 12 12
10 11 11 11 12 11 12 14 14 14 15 15 15 15 15 15 14 14 14 14 14 14 14 14 14 13 14 14 13 13 13 13 13 12 12 12 12 12 12 12 12 12 12 12
Wind_Speed
4 4 6 9 10 6 4 4 5 6 2 2 4 5 5 4 5 6 6 7 7 6 4 4 6 5 4 3 3 4 3 2 3 2 2 1 1 1 1 1 2 3 3 3
3 6 10 6 6 5 4 4 5 5 1 3 2 4 4 4 6 7 9 9 8 6 4 4 5 5 5 5 4 4 4 3 3 3 3 2 1 1 1 1 1 2 2 3
8 8 4 5 5 5 5 7 6 4 2 2 2 4 4 2 3 5 6 7 7 8 7 6 5 5 5 5 5 4 3 3 3 2 1 1 1 1 1 1 1 1 2 2
6 5 4 4 5 7 6 7 7 5 2 2 2 3 6 3 3 5 6 6 7 7 6 6 6 5 4 5 4 4 3 3 3 3 3 4 2 2 3 2 2 1 2 2
6 4 6 6 7 8 6 2 4 3 4 1 0 2 6 1 4 6 6 7 8 7 7 7 7 7 5 4 3 3 3 3 3 3 4 4 2 2 1 1 1 1 1 2
5 3 5 6 3 5 5 6 6 5 4 1 3 4 6 4 6 5 5 6 7 7 6 6 5 4 3 3 3 2 3 3 3 3 3 4 4 3 2 2 2 2 1 2
3 3 3 3 2 2 5 5 3 3 2 5 2 3 8 6 6 7 8 8 7 6 6 6 6 5 4 4 3 3 3 2 2 3 3 4 4 4 5 4 4 3 2 2
3 5 4 3 6 6 6 8 7 5 5 4 1 5 7 5 3 4 5 6 6 6 6 6 7 6 6 5 4 4 4 3 3 3 3 3 3 3 3 4 4 4 4 4
6 5 3 2 2 8 6 4 6 6 2 1 4 5 7 2 1 2 4 5 6 6 7 6 6 6 6 5 5 4 4 3 3 3 2 2 2 2 3 3 3 3 3 3
7 3 3 1 4 4 5 8 6 5 4 3 4 4 5 6 5 4 5 6 6 5 5 5 5 5 5 5 4 3 4 4 3 2 3 3 2 2 3 3 3 3 3 2
4 4 2 2 2 4 4 4 5 5 5 5 3 7 6 8 8 8 8 7 7 6 5 5 5 5 4 3 3 3 3 3 2 3 3 2 2 2 2 3 3 3 2 2
4 5 1 4 4 3 4 6 7 5 3 4 4 7 5 5 6 7 7 6 5 5 5 4 4 4 3 4 4 4 4 4 4 3 2 2 2 2 2 2 3 2 3 3
6 5 2 4 4 2 2 3 4 6 5 5 4 7 3 0 2 4 6 5 4 4 4 4 4 4 4 3 4 4 4 4 3 2 2 2 2 2 3 3 3 3 3 2
6 5 6 8 7 4 2 2 4 6 4 5 7 7 5 3 3 4 5 5 5 4 4 4 4 4 4 3 3 4 4 3 3 3 3 3 4 4 4 3 3 3 3 3
4 4 4 5 4 3 3 4 5 5 7 7 7 7 8 7 6 5 5 5 5 4 4 5 5 4 3 3 3 3 3 2 3 3 3 4 4 3 2 3 3 3 3 4
3 3 3 1 2 3 2 3 4 4 4 4 3 6 5 2 2 2 4 6 6 6 5 5 5 4 4 4 4 3 3 3 3 4 4 3 3 2 3 3 3 2 3 3
2 4 3 2 1 2 2 4 5 4 3 5 6 6 2 1 2 4 5 5 6 5 5 6 5 5 5 5 4 4 4 3 4 4 3 3 3 3 3 3 2 3 3 3
5 4 3 2 2 4 6 2 4 4 2 3 3 3 4 4 2 2 3 5 5 5 5 5 5 4 4 3 3 2 3 3 4 4 3 3 3 3 3 3 3 3 3 3
5 6 4 4 3 3 3 1 3 3 3 2 3 2 2 3 3 3 1 3 5 5 5 5 5 4 3 3 3 3 3 3 3 4 4 4 4 4 3 4 4 3 3 3
4 4 5 4 4 5 5 3 1 4 3 2 3 5 4 5 2 4 3 2 2 3 3 3 3 2 3 3 3 3 3 2 4 5 5 4 4 4 4 4 4 3 3 4
3 3 3 4 3 5 3 2 2 3 6 3 4 5 5 4 5 4 2 1 2 1 1 2 3 3 3 3 3 3 3 4 5 3 3 2 2 3 3 3 2 2 2 2
2 2 2 3 3 5 1 2 4 5 2 3 4 4 4 3 1 1 1 0 1 1 1 2 2 2 1 2 4 3 4 4 2 2 2 2 2 2 2 2 2 2 2 2
2 3 3 4 5 3 2 3 3 2 3 2 3 2 3 2 1 0 0 0 0 1 2 2 3 2 1 1 2 3 3 2 2 2 1 1 1 2 2 2 2 2 2 2
2 2 2 1 3 4 4 2 2 2 2 2 3 3 3 3 2 1 1 0 0 0 1 2 2 2 2 2 2 3 2 1 2 2 1 1 1 1 1 1 2 2 3 3
1 1 1 1 3 4 4 3 2 2 3 3 3 2 3 3 1 1 0 0 1 1 1 2 2 3 3 2 2 2 1 2 2 2 1 1 1 1 1 1 2 3 3 4
1 1 2 4 4 2 4 3 1 2 2 3 3 3 2 2 1 0 0 1 0 0 1 1 1 1 1 1 2 2 2 2 2 2 1 1 1 1 1 1 2 2 2 3
Wind_Direction
132 119 211 214 199 202 193 205 249 261 245 184 230 243 238 196 187 186 184 185 186 191 181 153 151 153 159 163 171 176 174 172 153 151 167 181 211 232 239 216 196 180 163 153
78 240 231 207 190 188 191 218 255 288 294 173 233 272 258 199 201 195 192 190 186 184 164 160 155 163 173 183 187 185 190 189 187 189 192 195 196 225 230 250 199 182 162 161
194 234 198 173 190 190 215 205 221 228 16 54 73 313 275 233 189 192 196 193 186 187 181 180 178 184 184 192 198 196 197 203 200 181 155 111 65 44 24 285 257 236 187 181
221 235 191 196 214 190 241 220 197 187 144 265 155 257 277 240 224 206 203 195 193 192 183 183 187 191 196 202 194 185 182 200 209 183 171 171 180 214 232 228 233 249 211 200
231 194 180 205 223 189 216 169 147 151 151 130 21 198 278 250 234 233 212 198 198 197 189 187 191 197 201 197 186 182 173 197 209 195 186 185 203 223 236 220 221 240 251 225
238 214 190 206 205 172 147 84 67 59 82 243 230 189 269 232 226 221 209 199 198 194 187 187 189 186 194 183 169 170 175 204 203 194 200 197 202 203 203 219 219 231 245 249
295 284 244 171 143 118 111 105 41 2 9 251 238 202 252 250 230 208 204 199 194 186 183 181 182 188 191 192 177 167 175 207 211 200 205 208 206 198 205 215 215 218 224 234
193 272 240 196 185 182 173 151 162 200 220 263 277 237 258 260 245 204 187 183 179 180 188 190 189 189 191 199 186 177 188 207 208 208 217 216 209 205 213 213 214 213 220 226
182 243 274 225 180 147 147 169 162 137 143 239 271 277 300 280 257 170 168 169 181 189 191 190 187 186 192 197 198 196 195 204 214 217 220 220 215 207 214 217 214 217 223 226
164 214 283 298 74 51 140 142 105 125 156 241 277 266 249 243 228 206 195 193 200 193 191 186 186 187 190 191 194 199 198 206 220 212 218 217 213 210 211 207 214 220 221 217
143 161 301 25 160 178 103 104 113 122 151 167 243 265 233 217 207 199 206 201 193 191 192 190 192 190 181 174 182 198 204 208 215 218 218 210 216 218 207 209 219 221 218 213
142 130 206 264 267 188 152 155 145 152 206 181 193 265 282 218 204 191 196 198 192 188 189 189 183 167 168 182 193 206 210 217 221 219 209 202 206 203 206 225 232 220 221 221
142 122 87 349 345 26 108 140 144 130 126 162 182 262 317 99 187 194 190 192 187 183 178 172 168 171 186 198 200 208 213 221 223 208 195 198 211 213 221 231 235 222 217 220
129 130 168 197 214 197 188 178 157 135 158 199 219 246 284 261 223 212 196 192 185 190 185 179 180 188 196 205 204 206 220 220 217 200 191 203 219 222 226 231 232 230 221 217
119 158 196 216 212 167 186 202 182 177 186 194 229 233 252 242 218 209 194 178 179 192 194 192 193 197 202 211 213 208 211 211 198 194 206 218 223 223 226 233 232 232 230 230
74 151 155 228 193 162 190 216 192 200 199 208 229 259 261 234 147 168 187 182 194 206 205 199 193 194 203 211 212 209 210 204 184 194 218 225 219 221 229 233 230 232 240 242
125 137 133 226 225 77 254 224 192 185 194 176 207 238 221 145 181 194 194 190 202 209 208 206 205 207 211 212 207 209 211 190 186 200 216 221 216 223 235 233 228 234 237 235
150 133 137 148 108 214 239 232 172 167 210 205 205 208 184 185 187 193 186 193 208 207 206 210 209 210 213 204 198 195 176 180 191 203 213 218 220 228 230 222 230 238 234 232
161 143 128 134 177 260 281 214 160 165 265 233 191 184 154 119 56 354 269 199 206 209 208 209 207 202 194 192 189 171 179 188 196 211 217 218 215 220 223 229 238 235 231 245
88 112 123 137 164 222 243 260 202 119 275 248 175 176 166 118 122 262 269 239 222 210 202 200 198 184 184 201 175 165 189 202 225 227 225 219 209 211 219 229 235 230 224 241
65 75 143 166 200 253 272 279 121 155 247 227 189 184 176 180 203 224 250 250 198 188 191 168 163 179 205 194 166 179 201 227 236 233 231 227 221 223 226 226 224 231 233 246
153 138 169 150 183 251 303 121 177 220 229 166 175 176 172 190 213 230 235 259 150 124 117 139 161 200 212 170 168 190 226 240 214 181 199 222 229 233 234 229 247 237 227 238
175 183 191 188 209 261 257 224 243 174 158 167 162 164 146 151 188 213 179 319 184 161 176 175 177 187 193 169 175 198 239 226 159 146 201 233 241 235 209 206 229 241 224 229
325 48 95 310 299 314 325 344 21 105 141 144 139 136 129 140 165 155 123 43 336 284 205 182 165 181 211 212 199 209 226 187 153 169 204 219 225 268 274 233 227 226 227 230
265 35 43 304 293 338 346 355 18 34 85 95 87 101 127 129 128 155 166 255 264 265 224 186 181 200 226 221 226 231 188 153 168 174 200 237 237 231 263 265 238 229 231 217
277 189 185 231 246 242 271 289 337 88 112 130 106 71 76 116 132 138 218 258 234 221 182 172 195 211 232 214 233 228 190 177 182 188 217 230 237 239 240 257 298 282 246 250
Height
1480 1486 1489 1486 1485 1485 1487 1491 1493 1487 1482 1486 1488 1487 1484 1484 1485 1486 1488 1490 1491 1492 1494 1496 1498 1499 1501 1502 1503 1504 1505 1505 1506 1506 1507 1507 1507 1507 1508 1508 1509 1509 1509 1509
1484 1485 1477 1476 1479 1483 1486 1491 1491 1486 1482 1485 1488 1487 1483 1483 1483 1484 1485 1486 1488 1490 1493 1494 1496 1497 1499 1500 1501 1502 1502 1503 1504 1504 1505 1505 1505 1505 1506 1506 1506 1507 1507 1508
1481 1475 1471 1475 1479 1483 1485 1488 1488 1488 1484 1484 1488 1491 1485 1482 1482 1483 1483 1484 1486 1488 1490 1492 1494 1495 1496 1497 1498 1499 1500 1501 1502 1502 1503 1503 1503 1503 1504 1504 1504 1505 1505 1506
1475 1469 1471 1474 1477 1479 1485 1477 1479 1483 1491 1498 1493 1504 1488 1483 1482 1481 1481 1483 1484 1486 1488 1490 1491 1493 1493 1494 1495 1496 1497 1498 1500 1500 1501 1501 1500 1500 1501 1502 1502 1503 1503 1504
1471 1467 1469 1473 1471 1471 1475 1472 1477 1482 1491 1498 1496 1503 1494 1485 1484 1481 1479 1480 1481 1483 1485 1487 1488 1490 1491 1492 1493 1494 1495 1496 1497 1498 1498 1499 1499 1499 1499 1500 1500 1501 1501 1501
1464 1462 1463 1464 1464 1466 1469 1476 1482 1490 1497 1507 1498 1503 1497 1487 1480 1477 1476 1477 1478 1481 1483 1485 1486 1488 1490 1491 1491 1492 1493 1494 1494 1495 1496 1496 1496 1496 1496 1497 1497 1498 1498 1499
1468 1463 1460 1460 1466 1467 1472 1486 1502 1505 1511 1508 1495 1498 1492 1476 1472 1472 1472 1474 1476 1478 1480 1482 1484 1486 1487 1488 1489 1490 1491 1491 1492 1492 1493 1494 1494 1494 1494 1494 1495 1495 1495 1496
1476 1475 1461 1458 1461 1468 1472 1480 1500 1509 1512 1506 1496 1497 1483 1470 1469 1469 1470 1472 1474 1476 1479 1480 1482 1484 1485 1486 1487 1488 1488 1489 1489 1490 1490 1491 1492 1492 1492 1492 1493 1493 1493 1494
1473 1472 1456 1454 1455 1460 1471 1478 1479 1495 1501 1506 1501 1489 1477 1469 1468 1468 1469 1471 1473 1475 1477 1478 1480 1482 1483 1485 1485 1486 1486 1486 1487 1488 1488 1489 1490 1490 1490 1490 1491 1491 1492 1492
1460 1468 1459 1455 1455 1459 1463 1471 1486 1496 1506 1508 1498 1492 1485 1472 1469 1469 1469 1470 1471 1473 1475 1477 1478 1480 1482 1483 1484 1484 1485 1485 1486 1486 1487 1487 1487 1488 1488 1489 1489 1490 1490 1491
1456 1467 1465 1460 1462 1465 1468 1473 1482 1492 1495 1504 1506 1494 1468 1465 1464 1466 1466 1467 1469 1471 1473 1475 1477 1479 1480 1481 1482 1483 1483 1484 1484 1485 1485 1485 1486 1486 1487 1487 1487 1488 1488 1489
1456 1466 1473 1465 1457 1456 1460 1467 1477 1488 1493 1496 1499 1489 1460 1460 1460 1462 1464 1466 1468 1470 1472 1474 1476 1477 1478 1479 1480 1481 1482 1482 1483 1483 1484 1484 1485 1485 1485 1486 1486 1486 1487 1487
1455 1466 1478 1475 1470 1462 1462 1465 1470 1478 1489 1496 1497 1483 1460 1459 1460 1461 1463 1465 1467 1469 1471 1473 1474 1475 1476 1477 1478 1479 1480 1481 1481 1482 1482 1483 1483 1483 1484 1484 1484 1484 1485 1485
1448 1462 1470 1476 1471 1463 1464 1465 1468 1475 1486 1489 1484 1473 1464 1462 1461 1461 1462 1464 1466 1468 1469 1471 1472 1474 1475 1476 1477 1477 1478 1479 1480 1481 1481 1481 1482 1482 1482 1482 1482 1482 1482 1483
1448 1459 1459 1459 1456 1457 1460 1461 1464 1468 1471 1476 1471 1469 1462 1459 1459 1459 1461 1463 1465 1467 1468 1469 1471 1472 1473 1474 1475 1476 1477 1477 1478 1479 1479 1480 1480 1480 1480 1480 1480 1480 1480 1481
1450 1457 1457 1458 1455 1456 1459 1458 1460 1462 1464 1466 1465 1465 1457 1457 1457 1458 1460 1461 1463 1465 1466 1468 1469 1471 1472 1472 1473 1474 1475 1476 1476 1477 1478 1478 1479 1479 1478 1478 1478 1479 1479 1479
1454 1457 1463 1466 1458 1457 1465 1458 1458 1459 1458 1460 1464 1460 1456 1457 1456 1457 1458 1460 1461 1462 1464 1466 1468 1469 1470 1471 1472 1472 1473 1474 1475 1476 1476 1477 1477 1477 1477 1477 1477 1477 1477 1477
1452 1458 1465 1468 1464 1472 1461 1450 1451 1454 1455 1454 1454 1454 1454 1455 1456 1456 1458 1459 1459 1461 1462 1464 1466 1468 1469 1470 1471 1471 1472 1473 1473 1474 1475 1475 1475 1475 1476 1476 1475 1476 1476 1476
1446 1455 1465 1471 1471 1465 1456 1450 1451 1454 1456 1453 1453 1453 1454 1455 1456 1457 1457 1458 1459 1460 1461 1463 1464 1466 1467 1468 1469 1470 1470 1471 1472 1472 1472 1473 1473 1473 1474 1474 1474 1474 1474 1473
1447 1450 1461 1468 1469 1470 1457 1448 1447 1451 1458 1451 1452 1453 1454 1455 1461 1459 1457 1457 1458 1459 1460 1461 1463 1464 1465 1466 1468 1468 1468 1469 1469 1470 1470 1471 1471 1471 1471 1472 1472 1472 1471 1471
1454 1457 1461 1465 1466 1460 1451 1447 1447 1460 1457 1450 1450 1451 1452 1454 1455 1456 1456 1456 1457 1458 1459 1460 1462 1463 1463 1465 1466 1466 1466 1467 1468 1468 1469 1469 1469 1470 1470 1470 1470 1470 1469 1469
1456 1460 1462 1464 1466 1463 1449 1448 1451 1451 1447 1447 1449 1450 1451 1452 1453 1454 1455 1456 1457 1458 1458 1459 1460 1461 1462 1463 1463 1464 1464 1465 1466 1467 1467 1467 1467 1468 1468 1468 1468 1468 1468 1467
1453 1454 1456 1457 1458 1451 1448 1447 1447 1446 1446 1447 1448 1449 1451 1452 1453 1454 1455 1456 1456 1457 1457 1458 1459 1459 1460 1461 1462 1462 1463 1463 1464 1465 1465 1465 1465 1465 1465 1465 1465 1465 1465 1465
1452 1451 1453 1454 1451 1448 1447 1446 1445 1445 1446 1447 1448 1449 1451 1452 1453 1454 1455 1455 1455 1456 1456 1457 1457 1457 1458 1459 1459 1460 1461 1461 1462 1462 1462 1463 1463 1463 1463 1463 1463 1463 1462 1462
1453 1453 1454 1454 1451 1448 1446 1446 1446 1446 1446 1447 1449 1450 1451 1452 1453 1453 1454 1454 1454 1454 1455 1455 1455 1456 1456 1457 1458 1458 1459 1459 1460 1460 1460 1460 1460 1460 1461 1461 1461 1461 1461 1460
1453 1453 1454 1453 1449 1449 1447 1446 1446 1446 1447 1448 1449 1450 1451 1452 1452 1453 1453 1453 1453 1453 1453 1454 1454 1454 1455 1455 1456 1456 1457 1457 1457 1457 1457 1458 1458 1458 1458 1459 1459 1459 1459 1458